Regional Weather Roundup
Issued by NWS Pendleton, OR

Home | Current Version | Previous Version | Text Only | Print | Product List | Glossary On
Versions: 1 2 3 4 5 6 7 8 9 10 11 12 13 14 15 16 17 18 19 20 21 22 23 24 25 26 27 28 29 30 31 32 33 34 35 36 37 38 39 40 41 42 43 44 45 46 47 48 49 50
285
ASUS46 KPDT 252210
RWRPDT
PENDLETON REGIONAL WEATHER ROUNDUP
NATIONAL WEATHER SERVICE PENDLETON OREGON
300 PM PDT MON JUL 25 2016

NOTE: FAIR INDICATES FEW OR NO CLOUDS BELOW 12,000 FEET WITH NO
SIGNIFICANT WEATHER AND/OR OBSTRUCTIONS TO VISIBILITY.

# INDICATES UNOFFICIAL STATION AND DATA

WAZ520-252310-
EAST SLOPES OF WASHINGTON CASCADES

CITY            SKY/WX      TMP DP  RH  WIND    PRES   REMARKS
#CLE ELUM HS    N/A         86  51  30  SW10    29.95S
#CLE ELUM 2NW   N/A         84  52  33  SW2     N/A
#GLENWOOD       N/A         90  62  39  S5      29.87F HX 90
#MANASTASH CYN  N/A         87  57  36  W3      30.01F
#NELSON 3SW     N/A         85  57  39  E1      30.07F
#NILE           N/A         91  52  27  NE1     29.15F HX 88
#RONALD 2NW     N/A         86  N/A N/A NW2     30.09F
#TEANAWAY 4NE   N/A         92  60  34  SW7     N/A    HX 92
#TROUT LAKE 1NE N/A         91  54  29  S3      29.87F HX 89
#TROUT LAKE 1E  N/A         93  60  33  CALM    29.94F HX 93
$$

WAZ521-252310-
SIMCOE HIGHLANDS

CITY            SKY/WX      TMP DP  RH  WIND    PRES   REMARKS
#CENTERVILLE 1SWN/A         92  53  27  SW7     29.83F HX 90
#GOLDENDALE 1NE N/A         92  32  12  SW5     N/A    HX 88
#GOLDENDALE 4W  N/A         94  60  32  W8      29.98F HX 94
#LYLE 6NE       N/A         84  60  44  SW10    29.86F
$$

WAZ026-252310-
KITTITAS VALLEY

CITY            SKY/WX      TMP DP  RH  WIND    PRES   REMARKS
ELLENSBURG AP   SUNNY       96  50  21  W5      29.96F HX 93
#ELLENSBURG CWU N/A         94  52  24  E1      29.82F HX 91
#ELLENSBURG 3NE N/A         90  60  37  CALM    29.96F HX 90
#ELLENSBURG     N/A         100 51  19  N1      N/A    HX 97
#KITTITAS 4N    N/A         94  56  28  CALM    30.00F HX 92
#KITTITAS 3S    N/A         89  60  38  CALM    29.85F
#THORP 6N       N/A         89  51  27  SW7     29.89F
$$

WAZ027-252310-
YAKIMA VALLEY

CITY            SKY/WX      TMP DP  RH  WIND    PRES   REMARKS
SUNNYSIDE AP    SUNNY       94  49  22  E3      29.91F HX 91
YAKIMA AIRPORT  SUNNY       97  46  18  VRB5    29.92F HX 93
YAKIMA-VAGABOND N/A         96  46  18  W8      29.91F HX 92
#DONALD 2NE     N/A         100 20   6  CALM    29.91F HX 94
#GRANDVIEW      N/A         92  48  22  CALM    29.88F HX 89
#MABTON         N/A         93  61  35  N1      29.90F HX 93
#NACHES 2SW     N/A         91  65  42  S2      29.98F HX 93
#TERRACE HTS    N/A         95  49  21  S2      29.82F HX 92
#WEST VALLEY    N/A         93  52  25  CALM    29.83F HX 90
#W YAKIMA       N/A         94  53  25  W1      29.85F HX 91
#WHITE SWAN 5E  N/A         93  62  36  NE7     29.86F HX 94
#WILEY CITY 3W  N/A         94  39  15  E2      29.91F HX 90
$$

WAZ028-252310-
LOWER COLUMBIA BASIN...WASHINGTON

CITY            SKY/WX      TMP DP  RH  WIND    PRES   REMARKS
HANFORD         MOSUNNY     98  42  15  N6      29.90F HX 94
PASCO           SUNNY       98  43  15  NE7     29.89F HX 94
RICHLAND AWOS   SUNNY       98  45  17  N5      29.89F HX 94
#BENTON CITY    N/A         93  53  26  NE5     29.77F HX 91
#CONNELL 5N     N/A         95  48  20  SW3     29.87F HX 91
#CONNELL 5NW    N/A         93  54  27  NW3     29.84F HX 91
#ELTOPIA 6NW    N/A         99  55  23  CALM    28.90F HX 97
#KAHLOTUS       N/A         93  47  21  N5      29.86F HX 89
#KENNEWICK 3S   N/A         95  55  26  CALM    29.87F HX 93
#PATERSON       N/A         94  48  21  S1      29.85F HX 91
#SAGEMOOR 2W    N/A         92  66  43  CALM    29.73F HX 95
#TOUCHET 2S     N/A         96  59  29  CALM    29.85F HX 95
#WEST PASCO     N/A         98  57  26  N1      29.87F HX 97
$$

WAZ029-252310-
FOOTHILLS OF THE BLUES...WASHINGTON

CITY            SKY/WX      TMP DP  RH  WIND    PRES   REMARKS
WALLA WALLA AP  SUNNY       95  41  16  VRB5    29.92F HX 91
#CLYDE 6NW      N/A         95  46  19  N7      29.85F HX 91
#DAYTON SCHOOL  N/A         93  42  17  SE2     29.95F HX 89
#LOWDEN 2SE     N/A         96  56  26  W2      29.85F HX 94
#PLEASANT VIEW 1N/A         95  43  17  CALM    29.89F HX 91
#PRESCOTT       N/A         96  56  26  CALM    29.84F HX 94
#WHITMAN COLLEGEN/A         94  51  23  SW7     29.90F HX 91
#WAITSBURG 5S   N/A         94  47  20  N1      29.94F HX 90
#WAITSBURG 8N   N/A         101 34  10  CALM    29.87F HX 96
#WALLA WALLA U  N/A         95  50  22  SW2     29.86F HX 92
#WHITMAN MISSIONN/A         96  54  25  CALM    29.86F HX 94
$$

WAZ030-252310-
BLUE MOUNTAINS...WASHINGTON

CITY            SKY/WX      TMP DP  RH  WIND    PRES   REMARKS
#DIXIE 5SE      N/A         84  46  27  W7      29.99S
$$

ORZ009-041-WAZ024-252310-
COLUMBIA RIVER GORGE

CITY            SKY/WX      TMP DP  RH  WIND    PRES   REMARKS
HOOD RIVER AP   SUNNY       86  55  35  NW12    29.93F
THE DALLES AP   SUNNY       93  56  29  NW20G25 29.88F HX 91
#ARLINGTON AIRPON/A         94  47  20  E5      29.87F HX 90
#LYLE           N/A         86  61  43  W9G26   29.89F
#MARYHILL 2W    N/A         94  50  23  W1      N/A    HX 91
#MOSIER 1S      N/A         88  43  21  W6      29.94S
#MURDOCK        N/A         90  61  38  W13     29.83F HX 90
#RUFUS DOT      N/A         96  54  25  NW6     N/A    HX 94
#SMITHVILLE     N/A         93  59  32  NW15G26 29.90F HX 92

$$

ORZ510-252310-
NORTH CENTRAL OREGON

CITY            SKY/WX      TMP DP  RH  WIND    PRES   REMARKS
#ANTELOPE       N/A         89  49  25  CALM    29.70F
#CHENOWITH 1W   N/A         85  56  37  W21     N/A
#COW CYN RST AREN/A         88  N/A N/A N7      N/A
#DUFUR 9E       N/A         87  46  24  N2      29.92S
#GRASS VALLEY 1SN/A         92  49  23  E3      29.95F HX 89
#KENT DOT       N/A         92  47  21  N8      N/A    HX 88
#SHANIKO 5WSW   N/A         87  45  23  N8      N/A
#SHANIKO 4NW    N/A         85  59  41  N5      30.09F
#TYGH VALLEY 2NEN/A         95  52  24  N3      29.85S HX 92
#WAPANITIA AIRPON/A         92  45  20  NW5     29.87F HX 88
#WASCO DOT      N/A         97  55  25  W2      N/A    HX 95
#WASCO 5NE      N/A         95  54  25  CALM    29.86F HX 93
$$

ORZ511-252310-
CENTRAL OREGON

CITY            SKY/WX      TMP DP  RH  WIND    PRES   REMARKS
BEND AIRPORT    SUNNY       90  39  17  VRB7    30.05F HX 86
MADRAS AIRPORT  SUNNY       97  39  14  MISG    30.02F HX 92
PRINEVILLE AP   SUNNY       90  37  15  NW13    30.03F HX 86
REDMOND AIRPORT SUNNY       92  31  11  N10     30.03F HX 88
#ASHWOOD SCHOOL N/A         91  39  16  NW7     29.96F HX 87
#BEND 1SW       N/A         88  43  21  N5      N/A
#BEND-AWBREY    N/A         90  43  20  NE1     29.98F HX 86
#CULVER         N/A         89  44  21  CALM    29.80F
#CULVER 8W      N/A         92  27  10  E3      30.03F HX 88
#MADRAS 4S      N/A         90  31  12  W6      30.07F HX 86
#POWELL BUTTE 3EN/A         87  44  22  W5      N/A
#POWELL BUTTE   N/A         91  49  24  W9      29.98F HX 88
#PRINEVILLE 3N  N/A         89  50  26  N3      29.90F
#WARM SPRINGS   N/A         94  50  23  CALM    29.92F HX 91

$$


ORZ509-252310-
EAST SLOPES OF OREGON CASCADES

CITY            SKY/WX      TMP DP  RH  WIND    PRES   REMARKS
SISTERS AWOS    N/A         90  41  18  N8      30.01F HX 86
#CAMP SHERMAN   N/A         96  48  20  N3      29.93S HX 93
#LA PINE DOT    N/A         91  31  12  W8      N/A    HX 87
#LA PINE 4NW    N/A         88  48  25  W5      29.89F
#LAVA BUTTE DOT N/A         89  46  23  N2      N/A
#SISTERS AIRPOR N/A         88  54  31  N5      30.17S
#SISTERS ODOT   N/A         89  N/A N/A SW2     N/A
#SISTERS 3N     N/A         87  45  23  N6      30.03S
#SUNRIVER       N/A         90  45  21  E2      29.87F HX 86
#SUTTLE LK DOT  N/A         82  53  37  W3      N/A
#TUMALO 3W      N/A         86  43  22  E6      29.73F
#WANOGA BUTTE D N/A         77  36  23  W2      N/A

$$

ORZ044-252310-
LOWER COLUMBIA BASIN...OREGON

CITY            SKY/WX      TMP DP  RH  WIND    PRES   REMARKS
HERMISTON       SUNNY       96  44  17  VRB3    29.90F HX 92
#BOARDMAN 8SW   N/A         95  49  21  N3      29.86F HX 92
#ECHO 8SW       N/A         96  53  24  N5      29.91F HX 94
#I-84 EX 198 DOTN/A         93  57  30  E8      N/A    HX 92
#UMATILLA       N/A         100 49  18  CALM    29.79F HX 97
$$

ORZ507-252310-
NORTHERN FOOTHILLS OF THE BLUES

CITY            SKY/WX      TMP DP  RH  WIND    PRES   REMARKS
PENDLETON AIRPT SUNNY       96  43  16  N7      29.94F HX 92
#ADAMS 3WNW     N/A         93  46  20  CALM    29.85F HX 89
#ATHENA         N/A         91  47  22  NE1     29.90F HX 88
#CAYUSE         N/A         92  48  22  N3      29.84F HX 89
#HELIX SCHOOL   N/A         90  45  21  N6      29.88F HX 86
#HELIX 3N       N/A         91  46  21  NW6     29.95F HX 87
#HOLDMAN 5SE    N/A         96  48  20  W5      29.93F HX 93
#HOLDMAN 6E     N/A         93  43  18  S5      29.68F HX 89
#M-F GROVE ELEM N/A         92  45  20  CALM    29.91F HX 88
#M-FREEWATER 5SEN/A         94  58  30  NW1     29.93F HX 93
#PENDLETON DNTN N/A         100 52  20  NE2     29.92F HX 97
#PDT AQUATIC CTRN/A         98  49  19  N2      29.77S HX 95
#PDT SUNRIDGE   N/A         96  48  20  W2      29.92F HX 93
#PENDLETON 7NW  N/A         92  59  33  S2      31.91S HX 91
#PILOT ROCK 1S  N/A         92  46  21  N2      29.96F HX 88
#PILOT ROCK     N/A         93  44  19  NE6     29.97F HX 89
#TUTUILLA       N/A         95  46  19  CALM    29.89F HX 91
#UMAPINE 2E     N/A         95  56  27  CALM    29.88F HX 93
#WESTON SCHOOL  N/A         89  38  17  SE3     29.78F

$$

ORZ508-252310-
SOUTHERN FOOTHILLS OF THE BLUES

CITY            SKY/WX      TMP DP  RH  WIND    PRES   REMARKS
LEXINGTON       SUNNY       93  45  19  VRB6    29.99F HX 89
#AJAX           N/A         90  43  20  NW2     27.74F HX 86
#CONDON 5W      N/A         86  40  20  N7      30.03F
#HEPPNER EOC    N/A         91  46  21  NW6     29.80F HX 87
#HEPPNER 4NE    N/A         87  46  24  CALM    29.87F
#LEXINGTON 2SE  N/A         94  48  21  CALM    29.91F HX 91
#RUGGS 5NE      N/A         94  42  17  N3      30.20S HX 90
#RUGGS 2SW      N/A         89  44  21  N3      29.88F

$$

ORZ502-503-252310-
BLUE MOUNTAINS

CITY            SKY/WX      TMP DP  RH  WIND    PRES   REMARKS
MEACHAM         SUNNY       86  34  16  VRB3    30.09F
#BATTLE MTN DOT N/A         83  47  28  N2      N/A
#CUTSFORTH PARK N/A         87  44  22  CALM    29.88S
#GREENHORN 9SW  N/A         92  43  18  NW3     30.02F HX 88
#HARDMAN 10S    N/A         61  34  36  N5      30.22R
#HEPPNER 15SE   N/A         85  44  24  SW5     30.03R
#LADD CYN SMT   N/A         90  50  26  N10     N/A    HX 87
#LADD CREEK ODOTN/A         89  52  28  NE6     N/A
#LONG CREEK HS  N/A         87  38  18  CALM    N/A
#N POWDER DOT   N/A         87  55  34  NE14    N/A
#PIKES PEAK     N/A         83  48  30  CALM    27.99S
#TOLLGATE       N/A         77  49  37  NE1     30.02F
#TROY SCHOOL    N/A         97  54  24  E3      29.68F HX 95
#UKIAH          N/A         88  47  24  W7      29.81F
#WESTON 4E      N/A         86  49  28  CALM    29.84F
$$

ORZ505-252310-
JOHN DAY BASIN

CITY            SKY/WX      TMP DP  RH  WIND    PRES   REMARKS
JOHN DAY        PTCLDY      96  37  13  W9      30.02F HX 91
#DAYVILLE SCHOOLN/A         96  37  13  W7      29.92F HX 91
#MITCHELL       N/A         92  53  27  CALM    30.17F HX 90
#MITCHELL 8NW   N/A         88  36  16  E2      30.04F
#MONUMENT HS    N/A         94  39  15  S3      29.80F HX 90
#MT. VERNON 5SE N/A         90  38  16  E1      30.00F HX 86
#SPRAY SCHOOL   N/A         99  N/A N/A CALM    N/A
$$

ORZ506-252310-
OCHOCO AND JOHN DAY HIGHLANDS

CITY            SKY/WX      TMP DP  RH  WIND    PRES   REMARKS
#BUCK CREEK DOT N/A         91  39  16  SW12    N/A    HX 87
#HORSE RIDGE DO N/A         86  33  15  NW10    N/A
#KEYES SMT DOT  N/A         85  41  21  CALM    N/A
#PAULINA SCHOOL N/A         94  33  12  NW6     N/A    HX 89
#PINE MTN OBS   N/A         74  40  29  NW6     N/A
#PRAIRIE CITY   N/A         96  35  12  SW1     30.16  HX 91
#SENECA         N/A         87  N/A N/A N1      N/A
#SENECA 9NW     N/A         91  39  16  N1      29.81F HX 87
$$

ORZ049-252310-
GRANDE RONDE VALLEY

CITY            SKY/WX      TMP DP  RH  WIND    PRES   REMARKS
LA GRANDE       SUNNY       93  46  20  NE9     29.99F HX 89
#COVE           N/A         92  53  27  CALM    30.04F HX 90
#COVE SCHOOL    N/A         93  45  19  CALM    30.03F HX 89
#COVE 6NW       N/A         90  48  24  N5      29.88F HX 87
#ELGIN 3N       N/A         92  44  19  S7      29.97F HX 88
#ELGIN 1E       N/A         93  50  23  CALM    N/A    HX 90
#IMBLER SCHOOL  N/A         90  43  20  N3      29.96F HX 86
#ISLAND CITY 4N N/A         85  64  50  SE1     30.01F
#LADD CYN DOT   N/A         92  55  29  N3      N/A    HX 90
#UNION 1S       N/A         91  44  20  NW3     29.77F HX 87
$$

ORZ050-252310-
WALLOWA COUNTY

CITY            SKY/WX      TMP DP  RH  WIND    PRES   REMARKS
JOSEPH AIRPORT  SUNNY       88  41  19  NW5     N/A
#ENTERPRISE AP  N/A         49  29  46  CALM    30.02S
#ENTERPRISE HS  N/A         88  48  25  W3      30.06F
#IMNAHA SCHOOL  N/A         96  46  18  N3      29.93F HX 92
#IMNAHA 10S     N/A         94  48  21  NE3     29.99F HX 91
#JOSEPH 3N      N/A         86  49  28  N5      30.09F
#JOSEPH 3W      N/A         84  46  27  N2      29.98S
#LOSTINE        N/A         92  42  18  NW1     29.67F HX 88
#LOSTINE 3SE    N/A         89  41  19  N3      30.02F
#MT HOWARD 8000 N/A         66  42  42  N5      30.41F
#PROMISE 1S     N/A         84  49  30  NW6     29.98S
#WALLOWA SCHOOL N/A         92  45  20  E1      29.97F HX 88



$$



USA.gov is the U.S. government's official web portal to all federal, state and local government web resources and services.